GFSMA_925_temp_024.txt.gz
Temp
18 17 17 16 16 17 16 16 16 16 16 16 15 15 14 14 14 14 14 14 13 13 12 11 11 10 10 10 10 10 10 10 9 9 9 9 8 8 8 8 8 9 9
17 16 16 16 16 16 16 15 15 15 15 14 14 14 14 13 13 13 13 13 13 12 12 11 10 10 10 9 9 9 9 9 9 9 9 8 8 7 7 7 7 8 8
16 16 16 16 15 15 15 14 14 14 14 13 13 13 13 12 12 12 12 12 12 12 11 10 10 9 9 9 9 9 9 8 8 8 8 7 7 7 6 6 6 7 7
16 15 15 15 15 14 14 14 13 13 12 12 12 12 12 12 11 11 11 11 11 10 10 9 9 9 8 8 8 9 8 8 8 8 8 7 7 6 6 6 6 6 7
15 15 14 14 14 14 13 13 12 12 12 11 11 11 11 11 10 10 10 10 10 9 9 8 9 8 8 8 8 8 8 8 8 8 7 6 6 5 5 5 5 6 6
15 14 14 14 13 13 13 12 12 11 11 10 10 10 10 10 9 9 9 9 9 8 8 8 8 8 8 8 7 7 7 7 7 6 6 6 6 5 5 5 5 5 5
14 14 14 13 13 12 12 11 10 10 10 9 9 9 9 9 8 8 8 8 8 8 7 7 7 7 7 7 6 6 6 7 6 6 6 6 5 5 5 5 5 5 5
14 14 14 13 13 12 11 10 10 10 9 9 8 7 4 7 8 8 7 7 7 7 7 6 6 6 6 5 5 5 5 6 5 5 5 5 4 4 4 4 4 4 5
13 13 12 12 11 11 10 9 9 9 8 8 7 8 4 3 4 7 6 6 7 6 6 5 5 5 5 5 4 4 5 5 4 4 4 4 4 4 4 4 4 4 4
13 12 12 11 11 10 9 9 8 8 8 7 7 6 6 6 2 2 5 6 5 5 6 5 5 4 4 4 4 4 4 4 3 3 3 3 4 4 4 4 4 4 4
11 11 11 10 9 8 8 8 8 7 7 6 6 6 6 6 5 3 1 3 4 5 4 4 4 4 4 4 3 3 3 3 2 2 2 3 3 3 3 3 3 3 4
10 10 10 9 8 8 7 7 7 7 6 6 5 5 5 5 4 4 0 1 2 4 4 4 4 3 3 3 3 3 2 1 1 1 1 1 1 2 2 2 2 3 3
9 9 8 8 7 7 7 6 7 6 6 5 4 5 5 4 4 4 3 2 1 3 3 3 3 2 2 2 2 1 1 1 0 -0 -0 0 0 0 1 1 1 2 3
9 8 8 7 7 7 6 6 6 6 5 5 5 4 4 4 4 3 3 2 -1 0 1 2 2 1 1 1 1 0 -1 -1 -0 -1 -1 -1 -1 -0 -0 0 1 1 2
8 8 7 7 7 6 6 6 6 5 5 5 5 4 4 4 3 2 2 2 1 -4 -2 1 1 -0 -1 -1 -1 -1 -2 -2 -2 -2 -2 -2 -1 -1 -0 -0 0 0 1
8 8 7 7 6 6 6 6 5 5 5 5 4 4 4 3 2 2 2 1 1 -1 -3 -1 -1 -2 -3 -3 -3 -3 -3 -3 -3 -3 -2 -2 -2 -1 -1 -1 -1 -1 0
9 8 7 7 6 6 6 6 5 5 4 4 4 3 3 2 2 2 1 1 0 -1 -3 -2 -2 -3 -3 -4 -4 -4 -4 -3 -3 -3 -3 -3 -2 -2 -2 -2 -2 -2 -1
8 8 7 6 6 6 5 5 5 5 5 3 3 3 2 2 2 1 1 0 -1 -1 -3 -4 -4 -4 -4 -4 -4 -4 -4 -4 -4 -4 -4 -4 -3 -3 -3 -2 -3 -3 -2
8 7 7 7 6 6 5 5 5 4 4 3 2 2 2 2 1 1 -0 -1 -2 -2 -3 -4 -5 -5 -5 -5 -5 -5 -5 -5 -5 -5 -5 -4 -4 -4 -3 -3 -3 -3 -2
8 7 7 7 6 6 6 5 5 4 3 3 2 2 1 1 0 -0 -1 -2 -3 -3 -4 -4 -5 -6 -6 -5 -5 -5 -6 -6 -6 -6 -5 -5 -5 -4 -4 -3 -3 -3 -2
7 7 7 7 6 6 6 5 4 4 3 2 2 1 1 0 -0 -1 -2 -3 -3 -4 -5 -5 -6 -6 -6 -6 -6 -6 -6 -6 -6 -6 -5 -5 -6 -5 -4 -3 -3 -3 -3
7 6 6 6 6 6 5 5 4 3 3 2 1 1 0 -0 -1 -1 -2 -3 -4 -5 -5 -6 -7 -7 -7 -7 -7 -7 -7 -7 -6 -6 -6 -6 -5 -5 -4 -3 -3 -2 -3
5 5 5 6 6 5 5 5 3 3 2 1 1 -0 -1 -1 -2 -2 -3 -3 -4 -4 -5 -6 -7 -7 -7 -7 -7 -7 -7 -7 -7 -6 -6 -7 -4 -5 -4 -3 -3 -2 -1
4 4 5 5 5 5 5 4 3 2 1 1 -0 -1 -1 -2 -2 -3 -3 -4 -4 -4 -5 -6 -7 -7 -7 -7 -7 -7 -6 -6 -6 -5 -6 -7 -5 -4 -4 -3 -3 -1 -1
4 4 4 4 4 4 4 3 2 1 1 0 -1 -1 -2 -2 -3 -3 -4 -4 -5 -5 -6 -6 -7 -6 -7 -7 -7 -6 -7 -7 -6 -6 -5 -6 -5 -4 -4 -3 -3 -3 -2
3 3 3 3 4 4 4 3 2 1 0 -0 -1 -2 -2 -3 -3 -4 -5 -5 -6 -5 -6 -6 -6 -6 -6 -7 -7 -7 -7 -7 -7 -6 -5 -5 -5 -5 -5 -3 -3 -3 -3

GFSMA_925_temp_027.txt.gz
Temp
17 17 17 17 16 16 16 16 15 15 15 14 14 14 14 13 13 13 13 14 13 13 12 12 11 10 10 10 9 9 9 9 9 9 9 8 8 7 7 7 7 7 8
17 17 16 16 16 15 15 15 15 14 14 14 13 13 13 12 11 12 12 13 13 12 11 11 10 10 10 9 9 9 9 8 9 9 8 7 7 7 7 7 7 7 7
16 16 16 15 15 15 15 14 14 13 13 13 13 12 12 11 11 11 11 12 12 10 10 10 10 9 9 9 9 9 8 8 8 8 8 7 7 7 6 6 6 6 6
15 15 15 15 15 14 14 14 13 12 12 11 11 11 11 10 10 10 10 11 10 9 9 9 9 8 8 8 8 9 8 8 8 8 7 7 7 6 6 6 5 6 6
15 15 15 14 14 14 13 13 12 11 11 10 10 10 10 9 9 9 9 10 9 8 8 8 8 8 8 8 8 8 8 8 8 7 7 7 7 6 6 5 5 5 5
15 14 14 14 13 13 12 12 11 10 10 10 10 10 9 9 8 8 8 8 9 8 8 8 8 7 7 6 7 7 7 7 7 6 6 6 6 6 5 5 5 5 5
14 14 14 13 13 12 11 11 11 10 9 9 9 9 8 8 8 7 7 7 7 7 7 7 6 6 6 6 6 5 6 6 6 6 6 6 5 5 5 5 5 5 5
13 14 13 12 11 11 11 11 10 9 9 8 8 6 4 6 7 6 7 7 6 6 6 6 6 5 5 5 5 4 4 5 5 5 5 5 5 4 5 5 5 5 4
13 13 12 12 11 11 10 10 9 8 8 7 8 8 3 3 4 6 6 6 6 6 6 5 5 5 4 4 4 4 4 4 4 4 4 4 4 4 4 4 4 4 4
12 12 11 11 11 10 10 9 8 8 7 7 6 6 6 6 2 2 5 5 5 5 5 5 5 4 4 3 3 3 3 3 3 3 3 3 3 3 3 3 3 3 4
11 10 10 10 10 9 9 8 8 7 7 6 6 6 6 5 4 2 0 3 4 5 4 4 4 4 3 3 3 3 2 2 2 1 1 2 2 2 2 2 2 3 3
10 10 10 9 9 8 8 7 7 6 6 5 5 5 4 4 4 3 -0 1 1 4 4 4 4 3 2 2 2 2 1 0 0 -0 -0 0 1 1 1 1 1 2 2
9 9 9 9 8 8 7 6 6 6 5 5 5 4 4 4 4 3 2 1 0 2 3 3 3 2 1 1 1 0 -0 -0 -1 -1 -1 -1 -0 -0 0 0 1 1 2
9 9 8 8 7 7 6 6 6 5 5 5 5 4 4 4 3 3 2 1 -1 -1 1 2 1 1 1 -0 -1 -1 -1 -2 -2 -2 -2 -2 -2 -1 -1 -0 0 1 1
9 8 8 8 7 6 6 6 6 5 5 5 4 4 4 4 3 3 2 2 1 -3 -3 0 1 0 -1 -2 -2 -3 -3 -3 -3 -3 -3 -3 -2 -2 -1 -1 -1 -0 -0
8 8 8 7 7 7 6 6 6 5 5 5 4 4 4 3 3 2 2 2 1 -1 -3 -1 -1 -2 -2 -3 -3 -4 -4 -4 -4 -4 -4 -4 -3 -3 -2 -2 -2 -1 -1
9 8 8 7 7 7 6 5 5 5 5 4 4 4 3 3 2 2 2 1 1 -0 -3 -2 -2 -2 -3 -4 -4 -4 -4 -4 -4 -4 -4 -4 -4 -4 -3 -3 -3 -2 -2
9 8 8 7 7 6 6 5 5 5 5 4 4 3 3 2 2 1 1 0 -0 -1 -2 -4 -3 -3 -4 -4 -5 -5 -5 -5 -5 -5 -5 -4 -4 -4 -4 -3 -3 -3 -3
9 8 7 7 7 6 6 5 5 5 5 4 4 3 2 2 1 1 0 -0 -1 -2 -3 -4 -5 -5 -5 -5 -5 -5 -5 -5 -6 -6 -6 -5 -5 -5 -5 -4 -4 -4 -3
8 8 7 7 7 6 6 6 5 5 4 4 3 2 2 1 1 1 -0 -1 -2 -3 -4 -4 -5 -6 -6 -6 -6 -6 -6 -6 -6 -6 -5 -5 -5 -5 -5 -5 -4 -3 -3
7 7 7 6 6 6 6 6 5 5 4 3 2 2 1 1 0 -0 -1 -1 -3 -3 -4 -5 -6 -7 -7 -7 -7 -7 -8 -7 -7 -6 -6 -5 -5 -5 -4 -4 -4 -3 -3
6 6 6 5 5 6 6 5 5 4 3 3 2 2 1 0 -0 -1 -1 -2 -3 -4 -5 -6 -7 -7 -7 -7 -7 -8 -8 -8 -7 -6 -6 -6 -6 -5 -4 -4 -3 -3 -3
5 5 4 4 5 5 5 5 5 4 3 3 2 1 1 -0 -1 -2 -2 -3 -4 -4 -5 -6 -7 -7 -7 -7 -7 -8 -8 -7 -7 -6 -7 -6 -5 -5 -4 -4 -3 -4 -4
3 4 4 4 4 4 4 4 4 3 2 2 1 1 -0 -1 -2 -2 -3 -3 -4 -5 -5 -6 -7 -7 -7 -7 -7 -7 -7 -7 -7 -7 -6 -6 -5 -5 -4 -4 -4 -4 -3
3 3 3 3 3 3 4 4 4 2 2 1 1 -0 -1 -1 -2 -3 -3 -4 -5 -5 -5 -6 -6 -6 -6 -7 -7 -7 -7 -8 -7 -7 -6 -6 -5 -6 -4 -4 -3 -3 -3
3 3 3 3 2 2 3 3 3 2 1 1 0 -0 -1 -1 -2 -3 -4 -4 -5 -5 -5 -6 -6 -6 -6 -6 -7 -7 -7 -8 -8 -7 -5 -6 -6 -6 -5 -4 -4 -3 -3

GFSMA_925_temp_030.txt.gz
Temp
17 16 16 16 16 16 16 16 15 15 14 14 13 13 13 13 13 13 13 13 13 12 12 11 11 10 10 9 9 9 9 9 9 9 8 8 7 7 7 7 7 7 7
17 16 16 16 16 16 15 15 14 14 13 13 13 12 12 11 11 12 12 12 12 12 11 11 10 10 10 9 9 9 9 9 8 8 8 7 7 7 7 6 7 7 7
16 16 16 15 15 15 15 14 14 13 13 12 12 11 11 10 10 11 11 11 11 10 10 10 10 9 9 9 9 9 9 8 8 8 7 7 7 7 6 6 6 6 6
16 16 15 15 14 14 14 14 13 13 12 12 11 10 10 10 10 10 10 11 10 9 9 9 8 8 8 8 8 8 8 8 8 8 8 7 7 7 6 6 6 6 6
15 15 15 14 14 14 13 13 12 12 11 10 10 9 9 9 9 9 9 9 9 8 9 8 8 8 7 7 7 7 8 8 8 8 7 7 7 6 6 6 6 5 6
14 15 14 13 13 13 12 12 11 10 10 9 9 9 8 8 8 8 8 8 9 8 8 8 8 7 7 6 6 6 7 7 7 7 7 7 6 6 5 5 5 5 5
14 14 14 13 12 12 11 10 10 9 9 9 9 8 7 7 7 7 7 7 8 7 7 7 7 6 6 6 6 5 5 6 6 6 6 6 6 5 5 5 5 5 5
13 13 13 12 11 11 10 9 9 9 8 8 8 6 3 6 6 6 6 6 6 6 6 6 6 5 5 5 4 4 4 4 4 5 5 5 5 5 5 5 5 5 5
13 12 12 11 11 10 10 9 9 9 8 7 7 7 4 3 3 5 6 6 6 5 5 5 5 4 4 4 4 3 3 3 3 4 4 4 4 4 4 4 4 4 4
12 11 11 11 10 10 9 9 9 8 8 7 6 6 6 5 3 2 5 5 5 5 5 5 5 4 3 3 3 3 2 2 2 2 3 3 3 3 3 3 3 4 4
11 11 10 10 10 9 9 9 8 7 7 6 6 6 5 5 4 2 1 3 5 5 5 4 4 4 3 3 2 2 2 1 1 1 1 1 2 2 2 2 3 3 3
10 10 10 10 9 9 8 8 7 6 6 6 5 5 4 4 4 2 -0 1 1 4 4 4 3 3 2 2 1 1 1 0 -0 -1 -1 -0 0 0 1 1 1 1 2
9 9 9 9 9 9 8 8 7 6 6 5 5 5 5 4 4 3 2 1 0 2 3 3 3 2 2 1 0 -0 -0 -1 -1 -2 -2 -2 -1 -1 -1 -0 0 1 1
10 10 9 9 8 7 8 7 6 5 5 5 5 4 4 4 4 3 3 1 -1 -1 1 2 2 2 1 0 -0 -1 -2 -2 -3 -3 -3 -3 -3 -2 -2 -1 -0 -0 0
10 9 9 8 8 8 7 7 6 6 5 5 5 4 4 4 3 3 2 2 1 -1 -2 1 0 0 -0 -1 -2 -2 -3 -3 -4 -4 -4 -4 -3 -3 -2 -2 -1 -1 -1
10 9 8 8 8 8 7 6 6 5 5 5 5 4 4 4 3 2 2 2 1 0 -1 -0 -0 -1 -2 -2 -3 -3 -4 -4 -4 -4 -4 -4 -4 -4 -3 -3 -3 -2 -2
9 9 8 8 8 7 7 6 5 5 5 5 4 4 4 3 3 2 2 1 1 -0 -2 -2 -2 -2 -3 -3 -4 -4 -4 -4 -5 -5 -5 -5 -4 -4 -4 -4 -4 -3 -2
9 9 8 8 7 7 6 6 5 5 5 5 5 4 4 3 2 2 2 1 1 -0 -2 -3 -3 -3 -3 -4 -4 -5 -5 -5 -5 -5 -6 -5 -5 -5 -5 -5 -5 -4 -4
9 8 8 7 7 7 6 6 5 5 5 5 4 4 4 3 2 2 1 1 -0 -1 -2 -4 -4 -4 -5 -5 -5 -6 -6 -6 -6 -6 -6 -6 -5 -5 -5 -5 -5 -5 -4
8 8 7 7 7 6 5 6 5 5 5 5 4 4 3 2 2 1 1 0 -1 -2 -3 -4 -5 -5 -6 -5 -6 -7 -7 -7 -7 -5 -5 -5 -5 -5 -4 -5 -5 -5 -5
8 7 7 6 5 5 5 5 5 5 5 5 3 3 3 2 2 1 0 -0 -1 -2 -3 -5 -5 -6 -7 -7 -7 -7 -8 -8 -7 -6 -6 -6 -5 -5 -4 -4 -4 -4 -4
6 6 5 5 5 4 5 5 5 5 5 4 3 3 2 2 1 0 -1 -1 -2 -3 -4 -5 -6 -7 -7 -7 -7 -8 -8 -8 -6 -6 -6 -7 -6 -5 -4 -4 -4 -5 -5
5 4 3 4 4 3 4 4 4 4 4 4 3 2 2 1 0 -0 -1 -2 -3 -4 -4 -5 -6 -6 -7 -7 -7 -8 -8 -8 -7 -7 -7 -7 -6 -6 -4 -4 -4 -4 -4
3 3 3 2 2 3 3 4 4 4 4 3 2 2 1 1 0 -1 -1 -3 -3 -4 -4 -5 -5 -6 -7 -7 -7 -7 -8 -8 -8 -8 -7 -7 -6 -6 -5 -4 -4 -4 -4
3 2 2 1 2 3 3 3 3 3 3 2 2 2 1 0 0 -1 -2 -3 -3 -4 -4 -5 -6 -6 -7 -7 -7 -7 -8 -8 -8 -8 -7 -7 -6 -6 -6 -4 -3 -3 -4
2 1 1 2 2 2 2 2 2 2 2 2 2 1 0 -0 -0 -1 -2 -3 -4 -4 -5 -5 -6 -6 -6 -6 -6 -7 -7 -9 -8 -8 -6 -7 -7 -7 -5 -4 -3 -4 -3

GFSMA_925_temp_036.txt.gz
Temp
17 17 16 17 17 16 16 16 15 15 14 14 14 14 14 13 14 14 14 13 13 13 12 12 11 10 10 10 9 9 9 9 9 9 8 8 8 7 7 7 7 7 7
16 16 16 16 16 16 16 16 15 15 15 14 13 13 13 13 13 13 14 13 12 12 12 12 11 10 10 10 10 9 9 9 9 9 8 8 8 7 7 7 7 7 7
15 16 16 16 16 15 15 14 14 14 14 14 13 13 13 12 13 12 13 13 13 11 11 11 10 10 10 10 9 9 9 9 8 8 8 8 8 7 7 7 6 6 6
15 15 16 15 15 15 15 15 15 15 14 14 13 13 12 12 11 11 12 12 12 12 10 10 9 9 8 8 8 8 8 8 8 8 8 8 8 7 7 6 6 6 6
15 16 16 14 14 14 14 14 14 14 14 14 13 12 12 12 11 11 11 11 10 11 11 9 9 8 8 8 7 7 8 8 8 7 7 7 7 7 7 7 6 6 6
15 15 14 13 14 14 14 14 14 13 13 13 13 12 11 11 11 11 10 10 10 10 10 9 9 9 7 7 7 6 7 7 6 6 6 6 6 6 6 6 6 6 6
14 14 14 13 14 14 14 13 13 13 12 12 13 13 11 10 10 10 10 10 9 9 9 9 9 9 8 7 6 5 5 5 5 5 5 5 5 5 5 5 6 6 6
14 14 14 14 14 13 12 12 12 13 12 11 13 13 15 13 10 9 10 9 8 8 9 8 7 7 7 7 6 5 4 4 4 4 4 4 4 4 5 5 5 5 5
14 13 13 14 13 13 13 12 12 12 13 11 10 13 15 16 13 11 9 9 8 8 8 8 7 6 6 6 5 5 3 3 3 2 3 3 3 3 3 4 4 4 5
13 13 13 12 12 13 12 12 11 11 11 12 10 10 10 11 14 13 10 9 8 8 8 7 7 6 6 5 5 4 3 2 2 1 1 1 2 2 2 3 3 3 4
11 12 11 11 11 12 11 11 10 9 10 9 11 11 10 10 9 10 12 12 10 9 8 7 7 6 6 5 5 4 2 1 1 -0 -0 0 0 1 1 1 2 2 2
11 10 10 11 11 11 10 9 8 8 8 10 10 10 10 11 11 10 11 10 10 9 8 7 6 6 6 5 4 3 1 0 -0 -1 -1 -1 -1 -1 -0 0 1 1 1
10 11 10 10 10 10 9 8 8 7 8 9 9 9 9 9 9 9 8 9 9 9 8 6 6 6 5 5 4 2 0 0 -1 -1 -2 -2 -2 -2 -2 -1 -1 0 0
11 11 10 10 10 9 8 7 7 7 7 8 8 8 8 8 8 7 8 8 9 8 8 8 7 6 5 4 3 2 1 1 -0 -2 -3 -3 -3 -3 -2 -2 -2 -1 -1
10 10 9 9 9 8 7 7 7 7 8 7 7 7 7 7 7 7 6 6 7 7 8 8 7 6 5 4 3 2 1 0 -1 -2 -3 -4 -4 -3 -3 -3 -3 -2 -2
10 10 9 8 8 8 7 7 7 8 7 7 7 7 7 7 6 6 6 6 6 6 7 6 6 5 4 3 2 1 0 -1 -1 -2 -3 -3 -4 -4 -4 -4 -3 -3 -3
10 8 8 8 8 7 6 6 8 8 7 7 7 7 6 6 6 6 6 6 6 6 6 6 5 5 4 2 1 1 0 -0 -0 -1 -2 -3 -4 -5 -5 -4 -4 -4 -4
8 9 9 7 7 6 7 7 7 6 6 5 7 7 6 6 6 6 6 5 5 5 5 5 5 4 3 3 1 0 -0 -0 -0 -1 -2 -4 -4 -5 -5 -5 -4 -4 -4
8 9 9 7 6 6 6 7 5 4 4 4 6 6 6 6 6 6 6 5 5 5 5 4 4 3 3 2 1 1 0 -0 -0 -1 -2 -2 -3 -4 -4 -4 -4 -4 -4
9 8 7 6 6 7 6 4 5 3 3 4 5 5 5 5 6 6 6 5 5 5 4 4 3 3 3 2 1 1 1 0 -0 -1 -1 -1 -2 -2 -3 -3 -3 -4 -4
7 7 6 6 5 4 4 5 4 2 2 3 4 5 5 5 5 5 5 5 5 4 4 3 3 3 3 2 2 1 -0 -0 -1 -1 -1 -1 -1 -1 -1 -1 -1 -2 -3
6 6 6 5 4 3 4 4 2 1 2 4 4 5 5 5 3 3 3 3 3 4 4 3 3 2 2 1 1 -0 -1 -1 -0 -1 -1 -2 -1 -1 -1 -0 -1 -2 -3
5 4 3 3 3 3 4 3 2 1 1 3 4 5 5 5 4 3 3 2 2 2 1 1 2 2 1 1 -0 -1 -1 -1 -1 -2 -2 -1 -1 -1 -1 -0 -1 -2 -3
4 3 3 3 4 3 2 2 1 1 2 3 4 4 4 4 5 4 3 3 2 1 -0 -1 -1 0 0 -1 -1 -2 -2 -3 -2 -2 -1 -1 -1 -1 -1 -1 -2 -2 -3
4 4 3 3 2 2 2 2 1 2 2 3 3 3 4 4 4 3 2 3 2 2 1 -0 -1 -1 -2 -3 -3 -3 -3 -2 -2 -1 -1 -2 -2 -2 -2 -2 -1 -2 -2
3 2 2 2 2 2 2 2 1 1 2 2 2 3 3 2 2 2 1 1 2 2 2 0 -2 -3 -4 -4 -5 -5 -4 -3 -2 -2 -2 -2 -2 -3 -3 -3 -2 -2 -2

GFSMA_925_temp_042.txt.gz
Temp
18 18 17 17 17 17 17 17 17 16 16 16 15 16 16 16 16 15 15 14 14 13 12 12 11 11 11 10 10 10 9 9 9 9 8 8 8 8 8 7 7 7 7
18 18 18 18 18 18 18 17 17 17 17 16 16 15 15 15 15 15 14 14 14 13 13 12 11 11 11 10 10 9 9 9 9 9 9 8 8 8 8 8 7 7 7
18 18 18 18 18 18 18 17 17 17 17 16 16 15 15 15 15 14 14 14 13 13 13 12 11 11 10 10 9 9 9 9 8 8 8 8 8 7 7 7 7 7 7
18 18 18 18 18 18 17 17 17 17 17 17 16 16 15 15 14 13 14 13 12 12 12 12 11 10 10 9 9 9 9 8 8 8 8 7 7 7 7 7 7 7 7
17 17 18 18 17 17 17 17 17 17 17 16 16 15 15 14 14 14 13 13 13 12 11 11 11 10 10 9 9 8 8 8 8 7 7 6 6 6 6 6 6 6 6
17 17 17 18 17 17 17 17 17 16 16 16 16 16 15 14 14 13 13 13 12 12 11 10 10 10 10 9 9 8 7 7 7 6 6 6 6 5 5 5 5 5 5
17 17 17 17 16 17 16 16 16 16 15 15 15 15 15 14 13 13 13 12 12 11 11 11 10 10 9 9 8 7 7 6 6 6 5 5 4 4 4 4 4 5 5
17 17 17 16 16 16 16 16 15 15 15 15 14 14 12 12 12 12 13 12 12 11 11 11 10 10 9 8 7 7 6 6 6 5 4 4 4 3 4 4 4 4 4
17 17 16 16 16 16 16 15 15 15 15 15 14 13 12 12 13 12 12 12 12 11 10 10 10 9 9 8 8 6 6 5 5 5 4 3 3 3 3 3 3 3 3
17 16 16 16 16 15 15 15 14 14 14 14 14 13 13 13 10 10 12 12 11 11 10 10 9 9 9 8 8 7 6 5 4 4 3 2 2 2 2 2 2 2 2
16 16 16 15 15 15 15 15 14 14 13 13 13 13 13 13 12 10 8 11 11 11 10 10 9 9 8 8 8 7 7 5 4 4 3 2 1 1 1 1 1 1 2
15 15 15 14 14 14 14 14 14 13 12 12 12 12 12 12 12 11 9 11 11 12 11 10 9 9 8 8 7 7 6 5 4 4 3 2 1 1 0 0 0 0 1
15 14 14 14 13 13 12 13 13 12 11 11 11 11 11 12 11 11 11 10 9 11 11 11 10 9 8 8 7 7 6 5 4 3 2 2 0 0 -0 -1 -1 -1 -0
15 14 13 13 13 12 12 12 12 11 10 10 10 10 10 10 10 10 10 9 6 8 9 10 10 10 9 8 7 7 6 5 4 3 2 2 1 0 -0 -1 -1 -1 -1
14 14 13 13 12 12 11 12 11 11 9 9 9 9 9 9 9 9 9 9 8 5 5 8 8 8 8 8 7 6 5 4 4 3 3 2 1 0 -1 -1 -1 -2 -2
14 14 13 12 11 10 11 11 10 9 9 9 9 9 9 8 8 9 8 8 8 8 4 7 8 8 8 7 7 6 5 5 4 3 2 2 1 1 -0 -1 -1 -2 -2
14 13 12 11 10 10 10 10 9 9 8 8 8 7 6 6 6 7 7 7 7 7 6 7 7 7 7 7 6 6 5 4 4 3 2 2 1 1 0 -0 -1 -1 -2
13 12 10 9 9 10 9 9 8 8 8 7 6 5 5 5 5 6 7 7 7 7 7 6 7 7 7 7 6 5 5 4 4 3 2 2 2 1 1 -0 -0 -1 -1
12 11 10 10 10 9 8 8 7 6 6 6 6 5 4 5 5 6 6 6 6 7 7 7 6 6 6 6 6 5 5 4 4 3 3 2 2 1 1 0 -0 -0 -0
11 10 10 10 9 8 8 7 6 5 5 5 5 4 4 4 4 5 5 6 6 6 6 6 6 6 6 6 6 5 5 4 4 3 2 2 1 1 1 0 0 0 0
10 9 9 8 8 8 7 5 5 5 6 5 4 3 3 3 4 4 5 5 5 5 5 5 5 5 5 5 5 5 4 4 3 3 2 1 1 1 0 -0 0 0 0
8 8 8 8 7 7 6 6 5 5 4 3 3 2 2 3 3 4 5 5 5 5 4 4 4 4 4 5 5 5 4 3 1 2 1 1 0 -0 -0 0 0 -0 -1
7 7 7 6 6 6 5 5 4 4 3 3 3 3 3 3 4 5 5 5 5 5 5 4 3 3 3 4 4 3 3 2 2 2 1 -0 -0 -0 -0 0 -0 -0 -1
5 5 5 5 5 4 4 4 3 3 3 3 3 3 4 4 4 4 4 3 3 3 3 4 4 3 3 3 3 3 2 2 1 1 -0 -1 -1 -0 0 -0 -1 -1 -1
4 4 5 5 5 3 3 3 2 2 2 2 2 2 2 2 1 0 0 -1 -1 0 1 2 2 3 3 2 2 2 1 1 -1 -1 -1 -1 -1 -0 -1 -1 -1 -2 -2
5 5 4 5 4 4 4 3 2 1 1 0 0 0 0 -0 -1 -1 -2 -3 -3 -2 -2 -1 -1 0 2 1 1 1 1 -0 -1 -2 -2 -1 -1 -1 -2 -2 -2 -2 -2